Weather in Jastarnia

Poland     54°42′04″N   18°40′12″E
temp.,
°C
wind,
m/s
gust,
m/s
humid.,
%
clouds,
%
prec.,
mm/h
press.,
hPa
HPBL,
m
18 august, thu
thu1823:00+22ne4582100 0.0 101351
02:00+21ene5686100 0.0 101389
05:00+21se4584100 0.0 101368
08:00+21sse4583100 0.0 101473
11:00+22se4476100 0.0 101455
14:00+22e5577100 0.0 101344
17:00+23ene71079100 0.0 101283
20:00+23ene697594 0.0 101274
19 august, fri
fri1923:00+23ese711745 0.0 101296
02:00+22se567911 0.0 101255
05:00+22se458255 0.0 101248
08:00+22se568386 0.0 101366
11:00+22se5681100 0.0 101360
14:00+23se337395 0.0 101218
17:00+24ene7974100 0.0 101061
20:00+22nw111386100 0.0 1011225
20 august, sat
sat2023:00+20nw71094100 1.1 1011162
02:00+21nne119397 3.0 101116
05:00+21sw2293100 1.6 101134
08:00+20ne5591100 1.8 1009151
11:00+21sw238978 0.2 101196
14:00+21nw559179 1.6 1012259
17:00+21nw6893100 2.8 1012356
20:00+20nnw579499 2.8 1013260
21 august, sun
sun2123:00+20nw569298 0.0 1013268
02:00+20wnw3390100 0.0 1013160
05:00+20wsw228773 0.1 1013117
08:00+20w0085100 0.9 101293
11:00+19w3290100 1.1 1013181
14:00+18ne1194100 4.9 1013117
17:00+19nw1190100 1.1 1013161
20:00+19nnw4491100 1.8 1013260
22 august, mon
mon2223:00+20n5590100 0.0 1012363
02:00+19n5693100 1.4 1012360
05:00+20n7790100 0.5 1011438
08:00+19nnw9992100 0.8 1012572
11:00+19nnw121293100 2.0 1013625
14:00+18nnw131491100 5.6 1015885
17:00+18n101187100 2.3 1015743
20:00+18n91081100 2.8 1016631